owner,sensor,date,latitude,longitude,vertical_datum,sea_water_practical_salinity,qcFlag 
SCCF RECON,ioos:station:SCCF:13:1,2013-07-01T00:00:00Z,26.5255,-82.0032,1.0,-9999.0,1111122 
SCCF RECON,ioos:station:SCCF:13:1,2013-07-01T01:00:00Z,26.5255,-82.0032,1.0,-9999.0,1111122 
SCCF RECON,ioos:station:SCCF:13:1,2013-07-01T02:00:00Z,26.5255,-82.0032,1.0,-9999.0,1111122 
SCCF RECON,ioos:station:SCCF:13:1,2013-07-01T03:00:00Z,26.5255,-82.0032,1.0,-9999.0,1111122 
SCCF RECON,ioos:station:SCCF:13:1,2013-07-01T04:00:00Z,26.5255,-82.0032,2.52,20.83,1111122 
SCCF RECON,ioos:station:SCCF:13:1,2013-07-01T05:00:00Z,26.5255,-82.0032,1.0,-9999.0,1111122 
SCCF RECON,ioos:station:SCCF:13:1,2013-07-01T06:00:00Z,26.5255,-82.0032,1.0,-9999.0,1111122 
SCCF RECON,ioos:station:SCCF:13:1,2013-07-01T07:00:00Z,26.5255,-82.0032,1.0,-9999.0,1111122 
SCCF RECON,ioos:station:SCCF:13:1,2013-07-01T08:00:00Z,26.5255,-82.0032,1.0,-9999.0,1111122 
SCCF RECON,ioos:station:SCCF:13:1,2013-07-01T09:00:00Z,26.5255,-82.0032,2.716,17.25,1111122 
SCCF RECON,ioos:station:SCCF:13:1,2013-07-01T10:00:00Z,26.5255,-82.0032,1.0,-9999.0,1111122 
SCCF RECON,ioos:station:SCCF:13:1,2013-07-01T11:00:00Z,26.5255,-82.0032,1.0,-9999.0,1111122 
SCCF RECON,ioos:station:SCCF:13:1,2013-07-01T12:00:00Z,26.5255,-82.0032,1.0,-9999.0,1111122 
SCCF RECON,ioos:station:SCCF:13:1,2013-07-01T13:00:00Z,26.5255,-82.0032,1.0,-9999.0,1111122 
SCCF RECON,ioos:station:SCCF:13:1,2013-07-01T14:00:00Z,26.5255,-82.0032,1.0,-9999.0,1111122 
SCCF RECON,ioos:station:SCCF:13:1,2013-07-01T15:00:00Z,26.5255,-82.0032,1.0,-9999.0,1111122 
SCCF RECON,ioos:station:SCCF:13:1,2013-07-01T16:00:00Z,26.5255,-82.0032,2.677,26.05,1111122 
SCCF RECON,ioos:station:SCCF:13:1,2013-07-01T17:00:00Z,26.5255,-82.0032,1.0,-9999.0,1111122 
SCCF RECON,ioos:station:SCCF:13:1,2013-07-01T18:00:00Z,26.5255,-82.0032,1.0,-9999.0,1111122 
SCCF RECON,ioos:station:SCCF:13:1,2013-07-01T19:00:00Z,26.5255,-82.0032,1.0,-9999.0,1111122 
SCCF RECON,ioos:station:SCCF:13:1,2013-07-01T20:00:00Z,26.5255,-82.0032,1.0,-9999.0,1111122 
SCCF RECON,ioos:station:SCCF:13:1,2013-07-01T21:00:00Z,26.5255,-82.0032,1.0,-9999.0,1111122 
SCCF RECON,ioos:station:SCCF:13:1,2013-07-01T22:00:00Z,26.5255,-82.0032,1.0,-9999.0,1111122 
SCCF RECON,ioos:station:SCCF:13:1,2013-07-01T23:00:00Z,26.5255,-82.0032,1.0,-9999.0,1111122 
SCCF RECON,ioos:station:SCCF:13:1,2013-07-02T00:00:00Z,26.5255,-82.0032,1.0,-9999.0,1111122 
SCCF RECON,ioos:station:SCCF:13:1,2013-07-02T01:00:00Z,26.5255,-82.0032,1.0,-9999.0,1111122 
SCCF RECON,ioos:station:SCCF:13:1,2013-07-02T02:00:00Z,26.5255,-82.0032,2.61,10.8,1111122 
SCCF RECON,ioos:station:SCCF:13:1,2013-07-02T03:00:00Z,26.5255,-82.0032,2.59,10.79,1111122 
SCCF RECON,ioos:station:SCCF:13:1,2013-07-02T04:00:00Z,26.5255,-82.0032,1.0,-9999.0,1111122 
SCCF RECON,ioos:station:SCCF:13:1,2013-07-02T05:00:00Z,26.5255,-82.0032,1.0,-9999.0,1111122 
SCCF RECON,ioos:station:SCCF:13:1,2013-07-02T06:00:00Z,26.5255,-82.0032,1.0,-9999.0,1111122 
SCCF RECON,ioos:station:SCCF:13:1,2013-07-02T07:00:00Z,26.5255,-82.0032,1.0,-9999.0,1111122 
SCCF RECON,ioos:station:SCCF:13:1,2013-07-02T08:00:00Z,26.5255,-82.0032,1.0,-9999.0,1111122 
SCCF RECON,ioos:station:SCCF:13:1,2013-07-02T09:00:00Z,26.5255,-82.0032,2.45,4.44,1111122 
SCCF RECON,ioos:station:SCCF:13:1,2013-07-02T10:00:00Z,26.5255,-82.0032,1.0,-9999.0,1111122 
SCCF RECON,ioos:station:SCCF:13:1,2013-07-02T11:00:00Z,26.5255,-82.0032,1.0,-9999.0,1111122 
SCCF RECON,ioos:station:SCCF:13:1,2013-07-02T12:00:00Z,26.5255,-82.0032,2.67,25.01,1111122 
SCCF RECON,ioos:station:SCCF:13:1,2013-07-02T13:00:00Z,26.5255,-82.0032,1.0,-9999.0,1111122 
SCCF RECON,ioos:station:SCCF:13:1,2013-07-02T14:00:00Z,26.5255,-82.0032,1.0,-9999.0,1111122 
SCCF RECON,ioos:station:SCCF:13:1,2013-07-02T15:00:00Z,26.5255,-82.0032,1.0,-9999.0,1111122 
SCCF RECON,ioos:station:SCCF:13:1,2013-07-02T16:00:00Z,26.5255,-82.0032,2.549,21.01,1111122 
SCCF RECON,ioos:station:SCCF:13:1,2013-07-02T17:00:00Z,26.5255,-82.0032,1.0,-9999.0,1111122 
SCCF RECON,ioos:station:SCCF:13:1,2013-07-02T18:00:00Z,26.5255,-82.0032,1.0,-9999.0,1111122 
SCCF RECON,ioos:station:SCCF:13:1,2013-07-02T19:00:00Z,26.5255,-82.0032,1.0,-9999.0,1111122 
SCCF RECON,ioos:station:SCCF:13:1,2013-07-02T20:00:00Z,26.5255,-82.0032,1.0,-9999.0,1111122 
SCCF RECON,ioos:station:SCCF:13:1,2013-07-02T21:00:00Z,26.5255,-82.0032,1.0,-9999.0,1111122 
SCCF RECON,ioos:station:SCCF:13:1,2013-07-02T22:00:00Z,26.5255,-82.0032,1.0,-9999.0,1111122 
SCCF RECON,ioos:station:SCCF:13:1,2013-07-02T23:00:00Z,26.5255,-82.0032,1.0,-9999.0,1111122 
SCCF RECON,ioos:station:SCCF:13:1,2013-07-03T00:00:00Z,26.5255,-82.0032,1.0,-9999.0,1111122 
SCCF RECON,ioos:station:SCCF:13:1,2013-07-03T01:00:00Z,26.5255,-82.0032,1.0,-9999.0,1111122 
SCCF RECON,ioos:station:SCCF:13:1,2013-07-03T02:00:00Z,26.5255,-82.0032,1.0,-9999.0,1111122 
SCCF RECON,ioos:station:SCCF:13:1,2013-07-03T03:00:00Z,26.5255,-82.0032,1.0,-9999.0,1111122 
SCCF RECON,ioos:station:SCCF:13:1,2013-07-03T04:00:00Z,26.5255,-82.0032,1.0,-9999.0,1111122 
SCCF RECON,ioos:station:SCCF:13:1,2013-07-03T05:00:00Z,26.5255,-82.0032,1.0,-9999.0,1111122 
SCCF RECON,ioos:station:SCCF:13:1,2013-07-03T06:00:00Z,26.5255,-82.0032,1.0,-9999.0,1111122 
SCCF RECON,ioos:station:SCCF:13:1,2013-07-03T07:00:00Z,26.5255,-82.0032,2.475,19.08,1111122 
SCCF RECON,ioos:station:SCCF:13:1,2013-07-03T08:00:00Z,26.5255,-82.0032,1.0,-9999.0,1111122 
SCCF RECON,ioos:station:SCCF:13:1,2013-07-03T09:00:00Z,26.5255,-82.0032,1.0,-9999.0,1111122 
SCCF RECON,ioos:station:SCCF:13:1,2013-07-03T10:00:00Z,26.5255,-82.0032,1.0,-9999.0,1111122 
SCCF RECON,ioos:station:SCCF:13:1,2013-07-03T11:00:00Z,26.5255,-82.0032,1.0,-9999.0,1111122 
SCCF RECON,ioos:station:SCCF:13:1,2013-07-03T12:00:00Z,26.5255,-82.0032,1.0,-9999.0,1111122 
SCCF RECON,ioos:station:SCCF:13:1,2013-07-03T13:00:00Z,26.5255,-82.0032,1.0,-9999.0,1111122 
SCCF RECON,ioos:station:SCCF:13:1,2013-07-03T14:00:00Z,26.5255,-82.0032,1.0,-9999.0,1111122 
SCCF RECON,ioos:station:SCCF:13:1,2013-07-03T16:00:00Z,26.5255,-82.0032,2.61,26.42,1111122 
SCCF RECON,ioos:station:SCCF:13:1,2013-07-03T17:00:00Z,26.5255,-82.0032,2.52,26.44,1111122 
SCCF RECON,ioos:station:SCCF:13:1,2013-07-03T18:00:00Z,26.5255,-82.0032,2.4,23.16,1111122 
SCCF RECON,ioos:station:SCCF:13:1,2013-07-03T19:00:00Z,26.5255,-82.0032,2.28,8.16,1111122 
SCCF RECON,ioos:station:SCCF:13:1,2013-07-03T20:00:00Z,26.5255,-82.0032,2.24,6.17,1111122 
SCCF RECON,ioos:station:SCCF:13:1,2013-07-03T21:00:00Z,26.5255,-82.0032,2.14,5.21,1111122 
SCCF RECON,ioos:station:SCCF:13:1,2013-07-03T22:00:00Z,26.5255,-82.0032,2.09,3.77,1111122 
SCCF RECON,ioos:station:SCCF:13:1,2013-07-03T23:00:00Z,26.5255,-82.0032,2.187,3.03,1111122 
SCCF RECON,ioos:station:SCCF:13:1,2013-07-04T00:00:00Z,26.5255,-82.0032,2.31,2.73,1111122 
SCCF RECON,ioos:station:SCCF:13:1,2013-07-04T01:00:00Z,26.5255,-82.0032,2.28,2.45,1111122 
SCCF RECON,ioos:station:SCCF:13:1,2013-07-04T02:00:00Z,26.5255,-82.0032,2.329,2.06,1111122 
SCCF RECON,ioos:station:SCCF:13:1,2013-07-04T03:00:00Z,26.5255,-82.0032,2.37,2.43,1111122 
SCCF RECON,ioos:station:SCCF:13:1,2013-07-04T04:00:00Z,26.5255,-82.0032,2.38,8.92,1111122 
SCCF RECON,ioos:station:SCCF:13:1,2013-07-04T05:00:00Z,26.5255,-82.0032,2.455,12.86,1111122 
SCCF RECON,ioos:station:SCCF:13:1,2013-07-04T06:00:00Z,26.5255,-82.0032,2.47,18.51,1111122 
SCCF RECON,ioos:station:SCCF:13:1,2013-07-04T07:00:00Z,26.5255,-82.0032,2.416,21.42,1111122 
SCCF RECON,ioos:station:SCCF:13:1,2013-07-04T08:00:00Z,26.5255,-82.0032,2.32,16.13,1111122 
SCCF RECON,ioos:station:SCCF:13:1,2013-07-04T09:00:00Z,26.5255,-82.0032,2.26,5.07,1111122 
SCCF RECON,ioos:station:SCCF:13:1,2013-07-04T10:00:00Z,26.5255,-82.0032,2.27,2.55,1111122 
SCCF RECON,ioos:station:SCCF:13:1,2013-07-04T11:00:00Z,26.5255,-82.0032,2.32,1.66,1111122 
SCCF RECON,ioos:station:SCCF:13:1,2013-07-04T12:00:00Z,26.5255,-82.0032,2.4,10.35,1111122 
SCCF RECON,ioos:station:SCCF:13:1,2013-07-04T13:00:00Z,26.5255,-82.0032,2.51,20.13,1111122 
SCCF RECON,ioos:station:SCCF:13:1,2013-07-04T14:00:00Z,26.5255,-82.0032,2.57,21.95,1111122 
SCCF RECON,ioos:station:SCCF:13:1,2013-07-04T15:00:00Z,26.5255,-82.0032,2.59,23.19,1111122 
SCCF RECON,ioos:station:SCCF:13:1,2013-07-04T16:00:00Z,26.5255,-82.0032,2.587,25.7,1111122 
SCCF RECON,ioos:station:SCCF:13:1,2013-07-04T17:00:00Z,26.5255,-82.0032,2.59,26.15,1111122 
SCCF RECON,ioos:station:SCCF:13:1,2013-07-04T18:00:00Z,26.5255,-82.0032,2.48,25.93,1111122 
SCCF RECON,ioos:station:SCCF:13:1,2013-07-04T19:00:00Z,26.5255,-82.0032,2.35,19.71,1111122 
SCCF RECON,ioos:station:SCCF:13:1,2013-07-04T20:00:00Z,26.5255,-82.0032,2.257,5.59,1111122 
SCCF RECON,ioos:station:SCCF:13:1,2013-07-04T21:00:00Z,26.5255,-82.0032,2.179,4.48,1111122 
SCCF RECON,ioos:station:SCCF:13:1,2013-07-04T22:00:00Z,26.5255,-82.0032,2.12,3.47,1111122 
SCCF RECON,ioos:station:SCCF:13:1,2013-07-04T23:00:00Z,26.5255,-82.0032,2.08,2.32,1111122 
SCCF RECON,ioos:station:SCCF:13:1,2013-07-05T00:00:00Z,26.5255,-82.0032,2.107,1.78,1111122 
SCCF RECON,ioos:station:SCCF:13:1,2013-07-05T01:00:00Z,26.5255,-82.0032,2.171,1.54,1111122 
SCCF RECON,ioos:station:SCCF:13:1,2013-07-05T02:00:00Z,26.5255,-82.0032,2.262,1.31,1111122 
SCCF RECON,ioos:station:SCCF:13:1,2013-07-05T03:00:00Z,26.5255,-82.0032,2.33,1.23,1111122 
SCCF RECON,ioos:station:SCCF:13:1,2013-07-05T04:00:00Z,26.5255,-82.0032,2.36,1.73,1111122 
SCCF RECON,ioos:station:SCCF:13:1,2013-07-05T05:00:00Z,26.5255,-82.0032,2.39,11.63,1111122 
SCCF RECON,ioos:station:SCCF:13:1,2013-07-05T06:00:00Z,26.5255,-82.0032,2.38,19.48,1111122 
SCCF RECON,ioos:station:SCCF:13:1,2013-07-05T07:00:00Z,26.5255,-82.0032,2.33,22.38,1111122 
SCCF RECON,ioos:station:SCCF:13:1,2013-07-05T08:00:00Z,26.5255,-82.0032,2.28,10.85,1111122 
SCCF RECON,ioos:station:SCCF:13:1,2013-07-05T09:00:00Z,26.5255,-82.0032,2.28,8.5,1111122 
SCCF RECON,ioos:station:SCCF:13:1,2013-07-05T10:00:00Z,26.5255,-82.0032,2.29,6.5,1111122 
SCCF RECON,ioos:station:SCCF:13:1,2013-07-05T11:00:00Z,26.5255,-82.0032,2.29,6.94,1111122 
SCCF RECON,ioos:station:SCCF:13:1,2013-07-05T12:00:00Z,26.5255,-82.0032,2.375,22.93,1111122 
SCCF RECON,ioos:station:SCCF:13:1,2013-07-05T13:00:00Z,26.5255,-82.0032,2.45,23.16,1111122 
SCCF RECON,ioos:station:SCCF:13:1,2013-07-05T14:00:00Z,26.5255,-82.0032,2.52,25.77,1111122 
SCCF RECON,ioos:station:SCCF:13:1,2013-07-05T15:00:00Z,26.5255,-82.0032,2.547,23.88,1111122 
SCCF RECON,ioos:station:SCCF:13:1,2013-07-05T16:00:00Z,26.5255,-82.0032,2.59,25.36,1111122 
SCCF RECON,ioos:station:SCCF:13:1,2013-07-05T17:00:00Z,26.5255,-82.0032,2.629,26.03,1111122 
SCCF RECON,ioos:station:SCCF:13:1,2013-07-05T18:00:00Z,26.5255,-82.0032,2.58,26.61,1111122 
SCCF RECON,ioos:station:SCCF:13:1,2013-07-05T19:00:00Z,26.5255,-82.0032,2.518,26.59,1111122 
SCCF RECON,ioos:station:SCCF:13:1,2013-07-05T20:00:00Z,26.5255,-82.0032,2.31,20.6,1111122 
SCCF RECON,ioos:station:SCCF:13:1,2013-07-05T21:00:00Z,26.5255,-82.0032,2.19,7.45,1111122 
SCCF RECON,ioos:station:SCCF:13:1,2013-07-05T22:00:00Z,26.5255,-82.0032,2.125,6.44,1111122 
SCCF RECON,ioos:station:SCCF:13:1,2013-07-05T23:00:00Z,26.5255,-82.0032,2.05,4.4,1111122 
SCCF RECON,ioos:station:SCCF:13:1,2013-07-06T00:00:00Z,26.5255,-82.0032,2.08,3.26,1111122 
SCCF RECON,ioos:station:SCCF:13:1,2013-07-06T01:00:00Z,26.5255,-82.0032,2.3,2.78,1111122 
SCCF RECON,ioos:station:SCCF:13:1,2013-07-06T02:00:00Z,26.5255,-82.0032,2.21,2.38,1111122 
SCCF RECON,ioos:station:SCCF:13:1,2013-07-06T03:00:00Z,26.5255,-82.0032,2.283,1.69,1111122 
SCCF RECON,ioos:station:SCCF:13:1,2013-07-06T04:00:00Z,26.5255,-82.0032,2.38,1.74,1111122 
SCCF RECON,ioos:station:SCCF:13:1,2013-07-06T05:00:00Z,26.5255,-82.0032,2.41,5.64,1111122 
SCCF RECON,ioos:station:SCCF:13:1,2013-07-06T06:00:00Z,26.5255,-82.0032,2.41,10.98,1111122 
SCCF RECON,ioos:station:SCCF:13:1,2013-07-06T07:00:00Z,26.5255,-82.0032,2.41,17.92,1111122 
SCCF RECON,ioos:station:SCCF:13:1,2013-07-06T08:00:00Z,26.5255,-82.0032,2.38,19.6,1111122 
SCCF RECON,ioos:station:SCCF:13:1,2013-07-06T09:00:00Z,26.5255,-82.0032,2.327,15.28,1111122 
SCCF RECON,ioos:station:SCCF:13:1,2013-07-06T10:00:00Z,26.5255,-82.0032,2.3,11.14,1111122 
SCCF RECON,ioos:station:SCCF:13:1,2013-07-06T11:00:00Z,26.5255,-82.0032,2.311,3.2,1111122 
SCCF RECON,ioos:station:SCCF:13:1,2013-07-06T12:00:00Z,26.5255,-82.0032,2.35,5.69,1111122 
SCCF RECON,ioos:station:SCCF:13:1,2013-07-06T13:00:00Z,26.5255,-82.0032,2.44,20.28,1111122 
SCCF RECON,ioos:station:SCCF:13:1,2013-07-06T14:00:00Z,26.5255,-82.0032,2.527,21.43,1111122 
SCCF RECON,ioos:station:SCCF:13:1,2013-07-06T15:00:00Z,26.5255,-82.0032,2.582,24.8,1111122 
SCCF RECON,ioos:station:SCCF:13:1,2013-07-06T16:00:00Z,26.5255,-82.0032,2.619,25.61,1111122 
SCCF RECON,ioos:station:SCCF:13:1,2013-07-06T17:00:00Z,26.5255,-82.0032,2.621,26.6,1111122 
SCCF RECON,ioos:station:SCCF:13:1,2013-07-06T18:00:00Z,26.5255,-82.0032,2.59,27.83,1111122 
SCCF RECON,ioos:station:SCCF:13:1,2013-07-06T19:00:00Z,26.5255,-82.0032,2.51,26.51,1111122 
SCCF RECON,ioos:station:SCCF:13:1,2013-07-06T20:00:00Z,26.5255,-82.0032,2.39,22.54,1111122 
SCCF RECON,ioos:station:SCCF:13:1,2013-07-06T21:00:00Z,26.5255,-82.0032,2.269,6.28,1111122 
SCCF RECON,ioos:station:SCCF:13:1,2013-07-06T22:00:00Z,26.5255,-82.0032,2.158,4.36,1111122 
SCCF RECON,ioos:station:SCCF:13:1,2013-07-06T23:00:00Z,26.5255,-82.0032,2.07,3.35,1111122 
SCCF RECON,ioos:station:SCCF:13:1,2013-07-07T00:00:00Z,26.5255,-82.0032,2.02,2.63,1111122 
SCCF RECON,ioos:station:SCCF:13:1,2013-07-07T01:00:00Z,26.5255,-82.0032,2.07,2.28,1111122 
SCCF RECON,ioos:station:SCCF:13:1,2013-07-07T02:00:00Z,26.5255,-82.0032,2.18,1.94,1111122 
SCCF RECON,ioos:station:SCCF:13:1,2013-07-07T03:00:00Z,26.5255,-82.0032,2.27,1.76,1111122 
SCCF RECON,ioos:station:SCCF:13:1,2013-07-07T04:00:00Z,26.5255,-82.0032,2.33,1.59,1111122 
SCCF RECON,ioos:station:SCCF:13:1,2013-07-07T05:00:00Z,26.5255,-82.0032,2.4,3.44,1111122 
SCCF RECON,ioos:station:SCCF:13:1,2013-07-07T06:00:00Z,26.5255,-82.0032,2.42,11.82,1111122 
SCCF RECON,ioos:station:SCCF:13:1,2013-07-07T07:00:00Z,26.5255,-82.0032,2.42,19.71,1111122 
SCCF RECON,ioos:station:SCCF:13:1,2013-07-07T08:00:00Z,26.5255,-82.0032,2.38,21.91,1111122 
SCCF RECON,ioos:station:SCCF:13:1,2013-07-07T09:00:00Z,26.5255,-82.0032,2.34,17.92,1111122 
SCCF RECON,ioos:station:SCCF:13:1,2013-07-07T10:00:00Z,26.5255,-82.0032,2.3,10.48,1111122 
SCCF RECON,ioos:station:SCCF:13:1,2013-07-07T11:00:00Z,26.5255,-82.0032,2.25,2.96,1111122 
SCCF RECON,ioos:station:SCCF:13:1,2013-07-07T12:00:00Z,26.5255,-82.0032,2.271,1.85,1111122 
SCCF RECON,ioos:station:SCCF:13:1,2013-07-07T13:00:00Z,26.5255,-82.0032,2.34,1.47,1111122 
SCCF RECON,ioos:station:SCCF:13:1,2013-07-07T14:00:00Z,26.5255,-82.0032,2.44,16.69,1111122 
SCCF RECON,ioos:station:SCCF:13:1,2013-07-07T15:00:00Z,26.5255,-82.0032,2.522,21.84,1111122 
SCCF RECON,ioos:station:SCCF:13:1,2013-07-07T16:00:00Z,26.5255,-82.0032,2.562,22.85,1111122 
SCCF RECON,ioos:station:SCCF:13:1,2013-07-07T17:00:00Z,26.5255,-82.0032,2.595,24.45,1111122 
SCCF RECON,ioos:station:SCCF:13:1,2013-07-07T18:00:00Z,26.5255,-82.0032,2.601,25.69,1111122 
SCCF RECON,ioos:station:SCCF:13:1,2013-07-07T19:00:00Z,26.5255,-82.0032,2.549,26.51,1111122 
SCCF RECON,ioos:station:SCCF:13:1,2013-07-07T20:00:00Z,26.5255,-82.0032,2.43,25.43,1111122 
SCCF RECON,ioos:station:SCCF:13:1,2013-07-07T21:00:00Z,26.5255,-82.0032,2.31,11.14,1111122 
SCCF RECON,ioos:station:SCCF:13:1,2013-07-07T22:00:00Z,26.5255,-82.0032,2.194,4.63,1111122 
SCCF RECON,ioos:station:SCCF:13:1,2013-07-07T23:00:00Z,26.5255,-82.0032,2.115,3.53,1111122 
SCCF RECON,ioos:station:SCCF:13:1,2013-07-08T00:00:00Z,26.5255,-82.0032,2.029,2.43,1111122 
SCCF RECON,ioos:station:SCCF:13:1,2013-07-08T01:00:00Z,26.5255,-82.0032,1.99,1.82,1111122 
SCCF RECON,ioos:station:SCCF:13:1,2013-07-08T02:00:00Z,26.5255,-82.0032,2.1,1.33,1111122 
SCCF RECON,ioos:station:SCCF:13:1,2013-07-08T03:00:00Z,26.5255,-82.0032,2.25,1.08,1111122 
SCCF RECON,ioos:station:SCCF:13:1,2013-07-08T04:00:00Z,26.5255,-82.0032,2.36,1.47,1111122 
SCCF RECON,ioos:station:SCCF:13:1,2013-07-08T05:00:00Z,26.5255,-82.0032,2.4,5.58,1111122 
SCCF RECON,ioos:station:SCCF:13:1,2013-07-08T06:00:00Z,26.5255,-82.0032,2.459,15.9,1111122 
SCCF RECON,ioos:station:SCCF:13:1,2013-07-08T07:00:00Z,26.5255,-82.0032,2.49,21.25,1111122 
SCCF RECON,ioos:station:SCCF:13:1,2013-07-08T08:00:00Z,26.5255,-82.0032,2.46,22.12,1111122 
SCCF RECON,ioos:station:SCCF:13:1,2013-07-08T09:00:00Z,26.5255,-82.0032,2.37,22.3,1111122 
SCCF RECON,ioos:station:SCCF:13:1,2013-07-08T10:00:00Z,26.5255,-82.0032,2.32,18.22,1111122 
SCCF RECON,ioos:station:SCCF:13:1,2013-07-08T11:00:00Z,26.5255,-82.0032,2.29,5.31,1111122 
SCCF RECON,ioos:station:SCCF:13:1,2013-07-08T12:00:00Z,26.5255,-82.0032,2.26,2.81,1111122 
SCCF RECON,ioos:station:SCCF:13:1,2013-07-08T13:00:00Z,26.5255,-82.0032,2.3,2.09,1111122 
SCCF RECON,ioos:station:SCCF:13:1,2013-07-08T14:00:00Z,26.5255,-82.0032,2.39,14.45,1111122 
SCCF RECON,ioos:station:SCCF:13:1,2013-07-08T15:00:00Z,26.5255,-82.0032,2.51,18.84,1111122 
SCCF RECON,ioos:station:SCCF:13:1,2013-07-08T16:00:00Z,26.5255,-82.0032,2.594,21.7,1111122 
SCCF RECON,ioos:station:SCCF:13:1,2013-07-08T17:00:00Z,26.5255,-82.0032,2.64,23.92,1111122 
SCCF RECON,ioos:station:SCCF:13:1,2013-07-08T18:00:00Z,26.5255,-82.0032,2.665,26.04,1111122 
SCCF RECON,ioos:station:SCCF:13:1,2013-07-08T19:00:00Z,26.5255,-82.0032,2.64,26.46,1111122 
SCCF RECON,ioos:station:SCCF:13:1,2013-07-08T20:00:00Z,26.5255,-82.0032,2.562,26.84,1111122 
SCCF RECON,ioos:station:SCCF:13:1,2013-07-08T21:00:00Z,26.5255,-82.0032,2.42,24.11,1111122 
SCCF RECON,ioos:station:SCCF:13:1,2013-07-08T22:00:00Z,26.5255,-82.0032,2.28,9.89,1111122 
SCCF RECON,ioos:station:SCCF:13:1,2013-07-08T23:00:00Z,26.5255,-82.0032,2.19,7.9,1111122 
SCCF RECON,ioos:station:SCCF:13:1,2013-07-09T00:00:00Z,26.5255,-82.0032,2.11,6.06,1111122 
SCCF RECON,ioos:station:SCCF:13:1,2013-07-09T01:00:00Z,26.5255,-82.0032,2.042,4.25,1111122 
SCCF RECON,ioos:station:SCCF:13:1,2013-07-09T02:00:00Z,26.5255,-82.0032,2.05,2.77,1111122 
SCCF RECON,ioos:station:SCCF:13:1,2013-07-09T03:00:00Z,26.5255,-82.0032,2.17,2.22,1111122 
SCCF RECON,ioos:station:SCCF:13:1,2013-07-09T04:00:00Z,26.5255,-82.0032,2.32,1.82,1111122 
SCCF RECON,ioos:station:SCCF:13:1,2013-07-09T05:00:00Z,26.5255,-82.0032,2.4,3.44,1111122 
SCCF RECON,ioos:station:SCCF:13:1,2013-07-09T06:00:00Z,26.5255,-82.0032,2.44,7.26,1111122 
SCCF RECON,ioos:station:SCCF:13:1,2013-07-09T07:00:00Z,26.5255,-82.0032,2.48,18.56,1111122 
SCCF RECON,ioos:station:SCCF:13:1,2013-07-09T08:00:00Z,26.5255,-82.0032,2.49,20.82,1111122 
SCCF RECON,ioos:station:SCCF:13:1,2013-07-09T09:00:00Z,26.5255,-82.0032,2.45,22.39,1111122 
SCCF RECON,ioos:station:SCCF:13:1,2013-07-09T10:00:00Z,26.5255,-82.0032,2.37,21.84,1111122 
SCCF RECON,ioos:station:SCCF:13:1,2013-07-09T11:00:00Z,26.5255,-82.0032,2.31,15.91,1111122 
SCCF RECON,ioos:station:SCCF:13:1,2013-07-09T12:00:00Z,26.5255,-82.0032,2.28,4.38,1111122 
SCCF RECON,ioos:station:SCCF:13:1,2013-07-09T13:00:00Z,26.5255,-82.0032,2.283,2.78,1111122 
SCCF RECON,ioos:station:SCCF:13:1,2013-07-09T14:00:00Z,26.5255,-82.0032,2.37,2.07,1111122 
SCCF RECON,ioos:station:SCCF:13:1,2013-07-09T15:00:00Z,26.5255,-82.0032,2.5,15.87,1111122 
SCCF RECON,ioos:station:SCCF:13:1,2013-07-09T16:00:00Z,26.5255,-82.0032,2.577,20.98,1111122 
SCCF RECON,ioos:station:SCCF:13:1,2013-07-09T17:00:00Z,26.5255,-82.0032,2.621,21.55,1111122 
SCCF RECON,ioos:station:SCCF:13:1,2013-07-09T18:00:00Z,26.5255,-82.0032,2.709,24.75,1111122 
SCCF RECON,ioos:station:SCCF:13:1,2013-07-09T19:00:00Z,26.5255,-82.0032,2.679,25.74,1111122 
SCCF RECON,ioos:station:SCCF:13:1,2013-07-09T20:00:00Z,26.5255,-82.0032,2.57,26.44,1111122 
SCCF RECON,ioos:station:SCCF:13:1,2013-07-09T21:00:00Z,26.5255,-82.0032,2.438,26.08,1111122 
SCCF RECON,ioos:station:SCCF:13:1,2013-07-09T22:00:00Z,26.5255,-82.0032,2.33,13.48,1111122 
SCCF RECON,ioos:station:SCCF:13:1,2013-07-09T23:00:00Z,26.5255,-82.0032,2.23,5.71,1111122 
SCCF RECON,ioos:station:SCCF:13:1,2013-07-10T00:00:00Z,26.5255,-82.0032,2.133,4.61,1111122 
SCCF RECON,ioos:station:SCCF:13:1,2013-07-10T01:00:00Z,26.5255,-82.0032,2.05,3.47,1111122 
SCCF RECON,ioos:station:SCCF:13:1,2013-07-10T02:00:00Z,26.5255,-82.0032,2.02,2.66,1111122 
SCCF RECON,ioos:station:SCCF:13:1,2013-07-10T03:00:00Z,26.5255,-82.0032,2.09,2.08,1111122 
SCCF RECON,ioos:station:SCCF:13:1,2013-07-10T04:00:00Z,26.5255,-82.0032,2.25,1.81,1111122 
SCCF RECON,ioos:station:SCCF:13:1,2013-07-10T05:00:00Z,26.5255,-82.0032,2.35,1.82,1111122 
SCCF RECON,ioos:station:SCCF:13:1,2013-07-10T06:00:00Z,26.5255,-82.0032,2.43,5.4,1111122 
SCCF RECON,ioos:station:SCCF:13:1,2013-07-10T07:00:00Z,26.5255,-82.0032,2.475,14.77,1111122 
SCCF RECON,ioos:station:SCCF:13:1,2013-07-10T08:00:00Z,26.5255,-82.0032,2.47,18.08,1111122 
SCCF RECON,ioos:station:SCCF:13:1,2013-07-10T09:00:00Z,26.5255,-82.0032,2.48,21.11,1111122 
SCCF RECON,ioos:station:SCCF:13:1,2013-07-10T10:00:00Z,26.5255,-82.0032,2.44,21.63,1111122 
SCCF RECON,ioos:station:SCCF:13:1,2013-07-10T11:00:00Z,26.5255,-82.0032,2.35,18.67,1111122 
SCCF RECON,ioos:station:SCCF:13:1,2013-07-10T12:00:00Z,26.5255,-82.0032,2.288,8.76,1111122 
SCCF RECON,ioos:station:SCCF:13:1,2013-07-10T13:00:00Z,26.5255,-82.0032,2.241,4.47,1111122 
SCCF RECON,ioos:station:SCCF:13:1,2013-07-10T14:00:00Z,26.5255,-82.0032,2.28,3.23,1111122 
SCCF RECON,ioos:station:SCCF:13:1,2013-07-10T15:00:00Z,26.5255,-82.0032,2.38,4.78,1111122 
SCCF RECON,ioos:station:SCCF:13:1,2013-07-10T16:00:00Z,26.5255,-82.0032,2.493,15.01,1111122 
SCCF RECON,ioos:station:SCCF:13:1,2013-07-10T17:00:00Z,26.5255,-82.0032,2.571,16.9,1111122 
SCCF RECON,ioos:station:SCCF:13:1,2013-07-10T18:00:00Z,26.5255,-82.0032,2.64,20.18,1111122 
SCCF RECON,ioos:station:SCCF:13:1,2013-07-10T19:00:00Z,26.5255,-82.0032,2.63,23.46,1111122 
SCCF RECON,ioos:station:SCCF:13:1,2013-07-10T20:00:00Z,26.5255,-82.0032,2.59,25.69,1111122 
SCCF RECON,ioos:station:SCCF:13:1,2013-07-10T21:00:00Z,26.5255,-82.0032,2.509,25.12,1111122 
SCCF RECON,ioos:station:SCCF:13:1,2013-07-10T22:00:00Z,26.5255,-82.0032,2.37,19.94,1111122 
SCCF RECON,ioos:station:SCCF:13:1,2013-07-10T23:00:00Z,26.5255,-82.0032,2.258,7.54,1111122 
SCCF RECON,ioos:station:SCCF:13:1,2013-07-11T00:00:00Z,26.5255,-82.0032,2.171,5.62,1111122 
SCCF RECON,ioos:station:SCCF:13:1,2013-07-11T01:00:00Z,26.5255,-82.0032,2.094,4.43,1111122 
SCCF RECON,ioos:station:SCCF:13:1,2013-07-11T02:00:00Z,26.5255,-82.0032,2.03,3.3,1111122 
SCCF RECON,ioos:station:SCCF:13:1,2013-07-11T03:00:00Z,26.5255,-82.0032,2.03,2.32,1111122 
SCCF RECON,ioos:station:SCCF:13:1,2013-07-11T04:00:00Z,26.5255,-82.0032,2.15,1.89,1111122 
SCCF RECON,ioos:station:SCCF:13:1,2013-07-11T05:00:00Z,26.5255,-82.0032,2.28,1.61,1111122 
SCCF RECON,ioos:station:SCCF:13:1,2013-07-11T06:00:00Z,26.5255,-82.0032,2.37,1.97,1111122 
SCCF RECON,ioos:station:SCCF:13:1,2013-07-11T07:00:00Z,26.5255,-82.0032,2.44,8.13,1111122 
SCCF RECON,ioos:station:SCCF:13:1,2013-07-11T08:00:00Z,26.5255,-82.0032,2.49,17.25,1111122 
SCCF RECON,ioos:station:SCCF:13:1,2013-07-11T09:00:00Z,26.5255,-82.0032,2.49,19.89,1111122 
SCCF RECON,ioos:station:SCCF:13:1,2013-07-11T10:00:00Z,26.5255,-82.0032,2.41,21.17,1111122 
SCCF RECON,ioos:station:SCCF:13:1,2013-07-11T11:00:00Z,26.5255,-82.0032,2.35,20.62,1111122 
SCCF RECON,ioos:station:SCCF:13:1,2013-07-11T12:00:00Z,26.5255,-82.0032,2.3,15.82,1111122 
SCCF RECON,ioos:station:SCCF:13:1,2013-07-11T13:00:00Z,26.5255,-82.0032,2.25,4.29,1111122 
SCCF RECON,ioos:station:SCCF:13:1,2013-07-11T14:00:00Z,26.5255,-82.0032,2.24,3.29,1111122 
SCCF RECON,ioos:station:SCCF:13:1,2013-07-11T15:00:00Z,26.5255,-82.0032,2.313,2.46,1111122 
SCCF RECON,ioos:station:SCCF:13:1,2013-07-11T16:00:00Z,26.5255,-82.0032,2.407,11.55,1111122 
SCCF RECON,ioos:station:SCCF:13:1,2013-07-11T17:00:00Z,26.5255,-82.0032,2.506,17.16,1111122 
SCCF RECON,ioos:station:SCCF:13:1,2013-07-11T18:00:00Z,26.5255,-82.0032,2.57,18.88,1111122 
SCCF RECON,ioos:station:SCCF:13:1,2013-07-11T19:00:00Z,26.5255,-82.0032,2.6,21.95,1111122 
SCCF RECON,ioos:station:SCCF:13:1,2013-07-11T20:00:00Z,26.5255,-82.0032,2.6,21.46,1111122 